{"data":{"norad_id":60488,"intl_designator":"2024-149W","name":"FLOCK 4BE-31","alt_names":[],"object_type":"PAYLOAD","status":"ACTIVE","operator":null,"country":"US","launch_date":"2024-08-16","launch_site_code":"AFWTR","launch_vehicle":null,"mission":null,"orbit_class":"UNKNOWN","rcs_meters":null,"size_class":null,"mass_kg":null,"dimensions":null,"purposes":["earth_obs"],"wikipedia_slug":null,"has_3d_model":false,"image_url":null,"decayed_at":null,"tle_current":{"epoch":"2026-05-25T03:14:51.597024Z","epoch_age_seconds":77506,"freshness":"FRESH","line1":"1 60488U 24149W   26145.13531941  .00020120  00000+0  45657-3 0  9995","line2":"2 60488  97.3799 230.0969 0002164  33.5544 326.5841 15.43087733 98825","mean_motion":15.43087733,"eccentricity":0.0002164,"inclination_deg":97.3799,"raan_deg":230.0969,"arg_perigee_deg":33.5544,"mean_anomaly_deg":326.5841,"bstar":0.00045657,"rev_number":9882,"period_min":93.319386137587,"perigee_km":435.5278958064,"apogee_km":438.47748826511,"semimajor_km":6815.1396920358,"source":"CELESTRAK","updated_at":"2026-05-25T13:38:13.303093Z"}}}